iso_date,epoch_date,Year,Hour,Min,DOY,POS_DOY,Lat,Lon,BP,Ts,Ta,has_bp,has_ts,has_ta,BuoyID,Buoy_Type,Buoy_Owner,Logistics,Hemisphere
2021-09-05T10:59:57Z,1630839597,2021,11,0,248.4583,248.4583,74.30242,-20.25102,1024.0,-999.00,-999.0,yes,no,no,300534061612440,ITB-20,USIABP,HDMS_Triton,North
2021-09-05T12:00:00Z,1630843200,2021,12,0,248.5,248.5,74.30235,-20.25107,1007.6,-999.00,-999.0,yes,no,no,300534061612440,ITB-20,USIABP,HDMS_Triton,North
2021-09-05T13:00:02Z,1630846803,2021,13,0,248.5417,248.5417,74.30228,-20.251,1007.3,-999.00,-999.0,yes,no,no,300534061612440,ITB-20,USIABP,HDMS_Triton,North
2021-09-05T13:59:57Z,1630850397,2021,14,0,248.5833,248.5833,74.30241,-20.25149,1006.9,-999.00,-999.0,yes,no,no,300534061612440,ITB-20,USIABP,HDMS_Triton,North
2021-09-05T15:00:00Z,1630854000,2021,15,0,248.625,248.625,74.23848,-20.22677,1006.6,-999.00,-999.0,yes,no,no,300534061612440,ITB-20,USIABP,HDMS_Triton,North
2021-09-05T16:00:02Z,1630857603,2021,16,0,248.6667,248.6667,74.20811,-19.29475,1006.2,-999.00,-999.0,yes,no,no,300534061612440,ITB-20,USIABP,HDMS_Triton,North
2021-09-05T16:59:57Z,1630861197,2021,17,0,248.7083,248.7083,74.4174,-18.72109,1006.0,-999.00,-999.0,yes,no,no,300534061612440,ITB-20,USIABP,HDMS_Triton,North
2021-09-05T18:00:00Z,1630864800,2021,18,0,248.75,248.75,74.626,-18.16017,1006.2,-999.00,-999.0,yes,no,no,300534061612440,ITB-20,USIABP,HDMS_Triton,North
2021-09-05T19:00:02Z,1630868403,2021,19,0,248.7917,248.7917,74.81502,-18.37212,1006.1,-999.00,-999.0,yes,no,no,300534061612440,ITB-20,USIABP,HDMS_Triton,North
2021-09-05T19:59:57Z,1630871997,2021,20,0,248.8333,248.8333,74.98574,-19.21532,1006.2,-999.00,-999.0,yes,no,no,300534061612440,ITB-20,USIABP,HDMS_Triton,North
2021-09-05T21:00:00Z,1630875600,2021,21,0,248.875,248.875,75.23543,-19.19786,1006.3,-999.00,-999.0,yes,no,no,300534061612440,ITB-20,USIABP,HDMS_Triton,North
2021-09-05T22:00:02Z,1630879203,2021,22,0,248.9167,248.9167,75.49433,-19.11421,1005.7,-999.00,-999.0,yes,no,no,300534061612440,ITB-20,USIABP,HDMS_Triton,North
2021-09-06T00:00:00Z,1630886400,2021,0,0,249.0,249.0,76.00447,-19.24831,1005.5,-999.00,-999.0,yes,no,no,300534061612440,ITB-20,USIABP,HDMS_Triton,North
2021-09-06T01:00:02Z,1630890003,2021,1,0,249.0417,249.0417,76.26038,-19.48827,1006.1,-999.00,-999.0,yes,no,no,300534061612440,ITB-20,USIABP,HDMS_Triton,North
2021-09-06T01:59:57Z,1630893597,2021,2,0,249.0833,249.0833,76.51509,-19.51785,1006.1,-999.00,-999.0,yes,no,no,300534061612440,ITB-20,USIABP,HDMS_Triton,North
2021-09-06T03:00:00Z,1630897200,2021,3,0,249.125,249.125,76.74303,-19.37199,1005.9,-999.00,-999.0,yes,no,no,300534061612440,ITB-20,USIABP,HDMS_Triton,North
2021-09-06T04:00:02Z,1630900803,2021,4,0,249.1667,249.1667,76.73466,-18.83912,1005.8,-999.00,-999.0,yes,no,no,300534061612440,ITB-20,USIABP,HDMS_Triton,North
2021-09-06T04:59:57Z,1630904397,2021,5,0,249.2083,249.2083,76.68099,-18.61283,1005.7,-999.00,-999.0,yes,no,no,300534061612440,ITB-20,USIABP,HDMS_Triton,North
2021-09-06T06:00:00Z,1630908000,2021,6,0,249.25,249.25,76.61619,-18.05887,1005.4,-999.00,-999.0,yes,no,no,300534061612440,ITB-20,USIABP,HDMS_Triton,North
2021-09-06T07:00:02Z,1630911603,2021,7,0,249.2917,249.2917,76.69452,-17.76332,1005.2,-999.00,-999.0,yes,no,no,300534061612440,ITB-20,USIABP,HDMS_Triton,North
2021-09-06T07:59:57Z,1630915197,2021,8,0,249.3333,249.3333,76.9424,-17.66233,1005.4,-999.00,-999.0,yes,no,no,300534061612440,ITB-20,USIABP,HDMS_Triton,North
2021-09-06T09:00:00Z,1630918800,2021,9,0,249.375,249.375,77.19028,-17.44141,1005.4,-999.00,-999.0,yes,no,no,300534061612440,ITB-20,USIABP,HDMS_Triton,North
2021-09-06T10:00:02Z,1630922403,2021,10,0,249.4167,249.4167,77.38168,-17.27036,1005.6,-999.00,-999.0,yes,no,no,300534061612440,ITB-20,USIABP,HDMS_Triton,North
2021-09-06T10:59:57Z,1630925997,2021,11,0,249.4583,249.4583,77.58009,-17.10898,1005.5,-999.00,-999.0,yes,no,no,300534061612440,ITB-20,USIABP,HDMS_Triton,North
2021-09-06T12:00:00Z,1630929600,2021,12,0,249.5,249.5,77.77423,-16.86372,1005.3,-999.00,-999.0,yes,no,no,300534061612440,ITB-20,USIABP,HDMS_Triton,North
2021-09-06T13:00:02Z,1630933203,2021,13,0,249.5417,249.5417,77.96302,-16.60315,1005.1,-999.00,-999.0,yes,no,no,300534061612440,ITB-20,USIABP,HDMS_Triton,North
2021-09-06T13:59:57Z,1630936797,2021,14,0,249.5833,249.5833,78.13277,-16.36962,1005.2,-999.00,-999.0,yes,no,no,300534061612440,ITB-20,USIABP,HDMS_Triton,North
2021-09-06T15:00:00Z,1630940400,2021,15,0,249.625,249.625,78.13664,-16.37579,1005.1,-999.00,-999.0,yes,no,no,300534061612440,ITB-20,USIABP,HDMS_Triton,North
2021-09-06T16:00:02Z,1630944003,2021,16,0,249.6667,249.6667,78.28719,-16.16717,1005.1,-999.00,-999.0,yes,no,no,300534061612440,ITB-20,USIABP,HDMS_Triton,North
2021-09-06T16:59:57Z,1630947597,2021,17,0,249.7083,249.7083,78.17758,-16.34096,1004.6,-999.00,-999.0,yes,no,no,300534061612440,ITB-20,USIABP,HDMS_Triton,North
2021-09-06T18:00:00Z,1630951200,2021,18,0,249.75,249.75,78.26712,-16.18399,1004.6,-999.00,-999.0,yes,no,no,300534061612440,ITB-20,USIABP,HDMS_Triton,North
2021-09-06T19:00:02Z,1630954803,2021,19,0,249.7917,249.7917,78.341,-16.05306,1004.4,-999.00,-999.0,yes,no,no,300534061612440,ITB-20,USIABP,HDMS_Triton,North
2021-09-06T19:59:57Z,1630958397,2021,20,0,249.8333,249.8333,78.275,-16.18717,1004.4,-999.00,-999.0,yes,no,no,300534061612440,ITB-20,USIABP,HDMS_Triton,North
2021-09-06T21:00:00Z,1630962000,2021,21,0,249.875,249.875,78.39624,-15.96554,1004.3,-999.00,-999.0,yes,no,no,300534061612440,ITB-20,USIABP,HDMS_Triton,North
2021-09-06T22:00:02Z,1630965603,2021,22,0,249.9167,249.9167,78.53479,-15.91123,1004.4,-999.00,-999.0,yes,no,no,300534061612440,ITB-20,USIABP,HDMS_Triton,North
2021-09-06T22:59:57Z,1630969197,2021,23,0,249.9583,249.9583,78.67852,-15.95929,1004.5,-999.00,-999.0,yes,no,no,300534061612440,ITB-20,USIABP,HDMS_Triton,North
2021-09-07T00:00:00Z,1630972800,2021,0,0,250.0,250.0,78.81879,-16.05473,1004.7,-999.00,-999.0,yes,no,no,300534061612440,ITB-20,USIABP,HDMS_Triton,North
2021-09-07T01:00:02Z,1630976403,2021,1,0,250.0417,250.0417,78.91248,-16.12415,1004.8,-999.00,-999.0,yes,no,no,300534061612440,ITB-20,USIABP,HDMS_Triton,North
2021-09-07T01:59:57Z,1630979997,2021,2,0,250.0833,250.0833,78.95339,-16.14578,1004.9,-999.00,-999.0,yes,no,no,300534061612440,ITB-20,USIABP,HDMS_Triton,North
2021-09-07T03:00:00Z,1630983600,2021,3,0,250.125,250.125,78.85634,-16.08356,1004.7,-999.00,-999.0,yes,no,no,300534061612440,ITB-20,USIABP,HDMS_Triton,North
2021-09-07T04:00:02Z,1630987203,2021,4,0,250.1667,250.1667,78.75664,-16.01128,1004.5,-999.00,-999.0,yes,no,no,300534061612440,ITB-20,USIABP,HDMS_Triton,North
2021-09-07T04:59:57Z,1630990797,2021,5,0,250.2083,250.2083,78.82595,-16.0599,1004.1,-999.00,-999.0,yes,no,no,300534061612440,ITB-20,USIABP,HDMS_Triton,North
2021-09-07T06:00:00Z,1630994400,2021,6,0,250.25,250.25,78.78783,-16.02823,1004.3,-999.00,-999.0,yes,no,no,300534061612440,ITB-20,USIABP,HDMS_Triton,North
2021-09-07T07:00:02Z,1630998003,2021,7,0,250.2917,250.2917,78.78782,-16.02871,1003.8,-999.00,-999.0,yes,no,no,300534061612440,ITB-20,USIABP,HDMS_Triton,North
2021-09-07T07:59:57Z,1631001597,2021,8,0,250.3333,250.3333,78.86552,-16.07174,1003.7,-999.00,-999.0,yes,no,no,300534061612440,ITB-20,USIABP,HDMS_Triton,North
2021-09-07T09:00:00Z,1631005200,2021,9,0,250.375,250.375,78.72815,-15.98394,1003.7,-999.00,-999.0,yes,no,no,300534061612440,ITB-20,USIABP,HDMS_Triton,North
2021-09-07T10:00:02Z,1631008803,2021,10,0,250.4167,250.4167,78.58386,-15.85526,1002.8,-999.00,-999.0,yes,no,no,300534061612440,ITB-20,USIABP,HDMS_Triton,North
2021-09-07T10:59:57Z,1631012397,2021,11,0,250.4583,250.4583,78.63576,-16.25559,1002.6,-999.00,-999.0,yes,no,no,300534061612440,ITB-20,USIABP,HDMS_Triton,North
2021-09-07T12:00:00Z,1631016000,2021,12,0,250.5,250.5,78.69964,-16.80338,1002.7,-999.00,-999.0,yes,no,no,300534061612440,ITB-20,USIABP,HDMS_Triton,North
2021-09-07T13:00:02Z,1631019603,2021,13,0,250.5417,250.5417,78.70413,-16.5378,1002.4,-999.00,-999.0,yes,no,no,300534061612440,ITB-20,USIABP,HDMS_Triton,North
2021-09-07T13:59:57Z,1631023197,2021,14,0,250.5833,250.5833,78.85771,-16.79193,1003.1,-999.00,-999.0,yes,no,no,300534061612440,ITB-20,USIABP,HDMS_Triton,North
2021-09-07T15:00:00Z,1631026800,2021,15,0,250.625,250.625,78.97101,-16.70088,1002.8,-999.00,-999.0,yes,no,no,300534061612440,ITB-20,USIABP,HDMS_Triton,North
2021-09-07T16:00:02Z,1631030403,2021,16,0,250.6667,250.6667,79.12305,-16.55751,1002.5,-999.00,-999.0,yes,no,no,300534061612440,ITB-20,USIABP,HDMS_Triton,North
2021-09-07T16:59:57Z,1631033997,2021,17,0,250.7083,250.7083,79.28004,-16.79763,1002.7,-999.00,-999.0,yes,no,no,300534061612440,ITB-20,USIABP,HDMS_Triton,North
2021-09-07T18:00:00Z,1631037600,2021,18,0,250.75,250.75,79.43262,-16.84001,1003.7,-999.00,-999.0,yes,no,no,300534061612440,ITB-20,USIABP,HDMS_Triton,North
2021-09-07T19:00:02Z,1631041203,2021,19,0,250.7917,250.7917,79.58897,-16.84172,1003.9,-999.00,-999.0,yes,no,no,300534061612440,ITB-20,USIABP,HDMS_Triton,North
2021-09-07T19:59:57Z,1631044797,2021,20,0,250.8333,250.8333,79.66773,-16.87012,1004.5,-999.00,-999.0,yes,no,no,300534061612440,ITB-20,USIABP,HDMS_Triton,North
2021-09-07T21:00:00Z,1631048400,2021,21,0,250.875,250.875,79.6483,-17.28943,1004.8,-999.00,-999.0,yes,no,no,300534061612440,ITB-20,USIABP,HDMS_Triton,North
2021-09-07T22:00:02Z,1631052003,2021,22,0,250.9167,250.9167,79.58203,-18.15874,1004.7,-999.00,-999.0,yes,no,no,300534061612440,ITB-20,USIABP,HDMS_Triton,North
2021-09-07T22:59:57Z,1631055597,2021,23,0,250.9583,250.9583,79.56451,-18.92584,1005.3,-999.00,-999.0,yes,no,no,300534061612440,ITB-20,USIABP,HDMS_Triton,North
2021-09-08T00:00:00Z,1631059200,2021,0,0,251.0,251.0,79.58366,-19.30219,1005.6,-999.00,-999.0,yes,no,no,300534061612440,ITB-20,USIABP,HDMS_Triton,North
2021-09-08T01:00:02Z,1631062803,2021,1,0,251.0417,251.0417,79.55971,-18.77317,1005.4,-999.00,-999.0,yes,no,no,300534061612440,ITB-20,USIABP,HDMS_Triton,North
2021-09-08T01:59:57Z,1631066397,2021,2,0,251.0833,251.0833,79.56989,-18.23025,1005.2,-999.00,-999.0,yes,no,no,300534061612440,ITB-20,USIABP,HDMS_Triton,North
2021-09-08T03:00:00Z,1631070000,2021,3,0,251.125,251.125,79.61294,-17.48628,1005.7,-999.00,-999.0,yes,no,no,300534061612440,ITB-20,USIABP,HDMS_Triton,North
2021-09-08T04:00:02Z,1631073603,2021,4,0,251.1667,251.1667,79.60686,-16.81102,1006.2,-999.00,-999.0,yes,no,no,300534061612440,ITB-20,USIABP,HDMS_Triton,North
2021-09-08T04:59:57Z,1631077197,2021,5,0,251.2083,251.2083,79.50263,-17.02021,1006.0,-999.00,-999.0,yes,no,no,300534061612440,ITB-20,USIABP,HDMS_Triton,North
2021-09-08T06:00:00Z,1631080800,2021,6,0,251.25,251.25,79.63495,-16.97923,1006.4,-999.00,-999.0,yes,no,no,300534061612440,ITB-20,USIABP,HDMS_Triton,North
2021-09-08T07:00:02Z,1631084403,2021,7,0,251.2917,251.2917,79.60296,-17.04384,1006.8,-999.00,-999.0,yes,no,no,300534061612440,ITB-20,USIABP,HDMS_Triton,North
2021-09-08T07:59:57Z,1631087997,2021,8,0,251.3333,251.3333,79.6788,-16.95625,1007.5,-999.00,-999.0,yes,no,no,300534061612440,ITB-20,USIABP,HDMS_Triton,North
2021-09-08T09:00:00Z,1631091600,2021,9,0,251.375,251.375,79.67204,-16.9463,1008.0,-999.00,-999.0,yes,no,no,300534061612440,ITB-20,USIABP,HDMS_Triton,North
2021-09-08T10:00:02Z,1631095203,2021,10,0,251.4167,251.4167,79.66662,-16.90804,1008.3,-999.00,-999.0,yes,no,no,300534061612440,ITB-20,USIABP,HDMS_Triton,North
2021-09-08T10:59:57Z,1631098797,2021,11,0,251.4583,251.4583,79.66977,-16.90905,1008.7,-999.00,-999.0,yes,no,no,300534061612440,ITB-20,USIABP,HDMS_Triton,North
2021-09-08T12:00:00Z,1631102400,2021,12,0,251.5,251.5,79.61462,-17.69493,1009.2,-999.00,-999.0,yes,no,no,300534061612440,ITB-20,USIABP,HDMS_Triton,North
2021-09-08T13:00:02Z,1631106003,2021,13,0,251.5417,251.5417,79.57121,-18.61971,1009.4,-999.00,-999.0,yes,no,no,300534061612440,ITB-20,USIABP,HDMS_Triton,North
2021-09-08T13:59:57Z,1631109597,2021,14,0,251.5833,251.5833,79.54792,-19.41654,1009.9,-999.00,-999.0,yes,no,no,300534061612440,ITB-20,USIABP,HDMS_Triton,North
2021-09-08T15:00:00Z,1631113200,2021,15,0,251.625,251.625,79.56669,-19.46654,1010.2,-999.00,-999.0,yes,no,no,300534061612440,ITB-20,USIABP,HDMS_Triton,North
2021-09-08T16:01:03Z,1631116863,2021,16,1,251.6674,251.6674,79.56518,-19.47031,1010.4,-999.00,-999.0,yes,no,no,300534061612440,ITB-20,USIABP,HDMS_Triton,North
2021-09-08T16:59:57Z,1631120397,2021,17,0,251.7083,251.7083,79.56157,-19.46221,1010.7,-999.00,-999.0,yes,no,no,300534061612440,ITB-20,USIABP,HDMS_Triton,North
2021-09-08T18:00:00Z,1631124000,2021,18,0,251.75,251.75,79.6028,-19.32274,1011.0,-999.00,-999.0,yes,no,no,300534061612440,ITB-20,USIABP,HDMS_Triton,North
2021-09-08T19:00:02Z,1631127603,2021,19,0,251.7917,251.7917,79.64199,-19.05161,1011.2,-999.00,-999.0,yes,no,no,300534061612440,ITB-20,USIABP,HDMS_Triton,North
2021-09-08T19:59:57Z,1631131197,2021,20,0,251.8333,251.8333,79.63711,-18.75637,1011.4,-999.00,-999.0,yes,no,no,300534061612440,ITB-20,USIABP,HDMS_Triton,North
2021-09-08T21:00:00Z,1631134800,2021,21,0,251.875,251.875,79.59297,-18.02051,1011.5,-999.00,-999.0,yes,no,no,300534061612440,ITB-20,USIABP,HDMS_Triton,North
2021-09-08T22:00:02Z,1631138403,2021,22,0,251.9167,251.9167,79.66362,-17.06416,1011.3,-999.00,-999.0,yes,no,no,300534061612440,ITB-20,USIABP,HDMS_Triton,North
2021-09-08T22:59:57Z,1631141997,2021,23,0,251.9583,251.9583,79.48288,-16.89936,1011.6,-999.00,-999.0,yes,no,no,300534061612440,ITB-20,USIABP,HDMS_Triton,North
2021-09-09T00:00:00Z,1631145600,2021,0,0,252.0,252.0,79.38093,-17.07088,1011.5,-999.00,-999.0,yes,no,no,300534061612440,ITB-20,USIABP,HDMS_Triton,North
2021-09-09T01:00:02Z,1631149203,2021,1,0,252.0417,252.0417,79.29614,-17.00603,1011.6,-999.00,-999.0,yes,no,no,300534061612440,ITB-20,USIABP,HDMS_Triton,North
2021-09-09T01:59:57Z,1631152797,2021,2,0,252.0833,252.0833,79.17684,-16.63162,1011.9,-999.00,-999.0,yes,no,no,300534061612440,ITB-20,USIABP,HDMS_Triton,North
2021-09-09T03:00:00Z,1631156400,2021,3,0,252.125,252.125,78.97771,-16.74285,1011.7,-999.00,-999.0,yes,no,no,300534061612440,ITB-20,USIABP,HDMS_Triton,North
2021-09-09T04:00:02Z,1631160003,2021,4,0,252.1667,252.1667,78.78054,-16.7664,1011.3,-999.00,-999.0,yes,no,no,300534061612440,ITB-20,USIABP,HDMS_Triton,North
2021-09-09T04:59:57Z,1631163597,2021,5,0,252.2083,252.2083,78.65174,-16.20267,1010.6,-999.00,-999.0,yes,no,no,300534061612440,ITB-20,USIABP,HDMS_Triton,North
2021-09-09T06:00:00Z,1631167200,2021,6,0,252.25,252.25,78.4958,-15.90533,1010.4,-999.00,-999.0,yes,no,no,300534061612440,ITB-20,USIABP,HDMS_Triton,North
2021-09-09T07:00:02Z,1631170803,2021,7,0,252.2917,252.2917,78.31833,-16.13608,1010.3,-999.00,-999.0,yes,no,no,300534061612440,ITB-20,USIABP,HDMS_Triton,North
2021-09-09T07:59:57Z,1631174397,2021,8,0,252.3333,252.3333,78.14119,-16.44156,1010.4,-999.00,-999.0,yes,no,no,300534061612440,ITB-20,USIABP,HDMS_Triton,North
2021-09-09T09:00:00Z,1631178000,2021,9,0,252.375,252.375,77.97098,-16.7091,1010.2,-999.00,-999.0,yes,no,no,300534061612440,ITB-20,USIABP,HDMS_Triton,North
2021-09-09T10:00:02Z,1631181603,2021,10,0,252.4167,252.4167,77.82324,-16.85623,1009.9,-999.00,-999.0,yes,no,no,300534061612440,ITB-20,USIABP,HDMS_Triton,North
2021-09-09T10:59:57Z,1631185197,2021,11,0,252.4583,252.4583,77.9779,-16.66383,1010.0,-999.00,-999.0,yes,no,no,300534061612440,ITB-20,USIABP,HDMS_Triton,North
2021-09-09T12:00:00Z,1631188800,2021,12,0,252.5,252.5,78.16175,-16.38331,1010.1,-999.00,-999.0,yes,no,no,300534061612440,ITB-20,USIABP,HDMS_Triton,North
2021-09-09T13:00:02Z,1631192403,2021,13,0,252.5417,252.5417,78.36562,-16.03687,1010.9,-999.00,-999.0,yes,no,no,300534061612440,ITB-20,USIABP,HDMS_Triton,North
2021-09-09T13:59:57Z,1631195997,2021,14,0,252.5833,252.5833,78.50217,-16.09586,1010.7,-999.00,-999.0,yes,no,no,300534061612440,ITB-20,USIABP,HDMS_Triton,North
2021-09-09T15:00:00Z,1631199600,2021,15,0,252.625,252.625,78.70117,-16.37634,1012.2,-999.00,-999.0,yes,no,no,300534061612440,ITB-20,USIABP,HDMS_Triton,North
2021-09-09T16:00:02Z,1631203203,2021,16,0,252.6667,252.6667,78.81026,-16.65701,1012.6,-999.00,-999.0,yes,no,no,300534061612440,ITB-20,USIABP,HDMS_Triton,North
2021-09-09T16:59:57Z,1631206797,2021,17,0,252.7083,252.7083,78.81125,-16.38035,1012.7,-999.00,-999.0,yes,no,no,300534061612440,ITB-20,USIABP,HDMS_Triton,North
2021-09-09T18:00:00Z,1631210400,2021,18,0,252.75,252.75,78.67763,-16.33227,1012.9,-999.00,-999.0,yes,no,no,300534061612440,ITB-20,USIABP,HDMS_Triton,North
2021-09-09T19:00:02Z,1631214003,2021,19,0,252.7917,252.7917,78.47396,-15.91183,1012.8,-999.00,-999.0,yes,no,no,300534061612440,ITB-20,USIABP,HDMS_Triton,North
2021-09-09T19:59:57Z,1631217597,2021,20,0,252.8333,252.8333,78.26287,-16.24119,1012.9,-999.00,-999.0,yes,no,no,300534061612440,ITB-20,USIABP,HDMS_Triton,North
2021-09-09T21:00:00Z,1631221200,2021,21,0,252.875,252.875,78.05663,-16.49356,1013.0,-999.00,-999.0,yes,no,no,300534061612440,ITB-20,USIABP,HDMS_Triton,North
2021-09-09T22:00:02Z,1631224803,2021,22,0,252.9167,252.9167,77.84394,-16.77122,1013.0,-999.00,-999.0,yes,no,no,300534061612440,ITB-20,USIABP,HDMS_Triton,North
2021-09-09T22:59:57Z,1631228397,2021,23,0,252.9583,252.9583,77.63447,-17.07866,1013.0,-999.00,-999.0,yes,no,no,300534061612440,ITB-20,USIABP,HDMS_Triton,North
2021-09-10T00:00:00Z,1631232000,2021,0,0,253.0,253.0,77.41647,-17.26253,1013.1,-999.00,-999.0,yes,no,no,300534061612440,ITB-20,USIABP,HDMS_Triton,North
2021-09-10T01:00:02Z,1631235603,2021,1,0,253.0417,253.0417,77.1964,-17.44009,1013.0,-999.00,-999.0,yes,no,no,300534061612440,ITB-20,USIABP,HDMS_Triton,North
2021-09-10T01:59:57Z,1631239197,2021,2,0,253.0833,253.0833,76.97262,-17.63207,1012.8,-999.00,-999.0,yes,no,no,300534061612440,ITB-20,USIABP,HDMS_Triton,North
2021-09-10T03:00:00Z,1631242800,2021,3,0,253.125,253.125,76.75148,-17.7907,1012.7,-999.00,-999.0,yes,no,no,300534061612440,ITB-20,USIABP,HDMS_Triton,North
2021-09-10T04:00:02Z,1631246403,2021,4,0,253.1667,253.1667,76.58004,-17.70138,1011.5,-999.00,-999.0,yes,no,no,300534061612440,ITB-20,USIABP,HDMS_Triton,North
2021-09-10T04:59:57Z,1631249997,2021,5,0,253.2083,253.2083,76.64695,-18.4756,1012.1,-999.00,-999.0,yes,no,no,300534061612440,ITB-20,USIABP,HDMS_Triton,North
2021-09-10T06:00:00Z,1631253600,2021,6,0,253.25,253.25,76.7476,-18.70231,1012.5,-999.00,-999.0,yes,no,no,300534061612440,ITB-20,USIABP,HDMS_Triton,North
2021-09-10T07:00:02Z,1631257203,2021,7,0,253.2917,253.2917,76.69394,-18.64986,1013.9,-999.00,-999.0,yes,no,no,300534061612440,ITB-20,USIABP,HDMS_Triton,North
2021-09-10T07:59:57Z,1631260797,2021,8,0,253.3333,253.3333,76.70537,-18.68094,1014.1,-999.00,-999.0,yes,no,no,300534061612440,ITB-20,USIABP,HDMS_Triton,North
2021-09-10T09:00:00Z,1631264400,2021,9,0,253.375,253.375,76.76307,-18.67836,1013.1,-999.00,-999.0,yes,no,no,300534061612440,ITB-20,USIABP,HDMS_Triton,North
2021-09-10T10:00:02Z,1631268003,2021,10,0,253.4167,253.4167,76.70597,-18.67949,1015.4,-999.00,-999.0,yes,no,no,300534061612440,ITB-20,USIABP,HDMS_Triton,North
2021-09-10T10:59:57Z,1631271597,2021,11,0,253.4583,253.4583,76.75115,-18.6893,1015.0,-999.00,-999.0,yes,no,no,300534061612440,ITB-20,USIABP,HDMS_Triton,North
2021-09-10T12:00:00Z,1631275200,2021,12,0,253.5,253.5,76.74419,-19.35014,1015.3,-999.00,-999.0,yes,no,no,300534061612440,ITB-20,USIABP,HDMS_Triton,North
2021-09-10T13:00:02Z,1631278803,2021,13,0,253.5417,253.5417,76.85648,-19.57185,1015.4,-999.00,-999.0,yes,no,no,300534061612440,ITB-20,USIABP,HDMS_Triton,North
2021-09-10T13:59:57Z,1631282397,2021,14,0,253.5833,253.5833,76.90796,-20.03886,1015.5,-999.00,-999.0,yes,no,no,300534061612440,ITB-20,USIABP,HDMS_Triton,North
2021-09-10T15:00:00Z,1631286000,2021,15,0,253.625,253.625,76.90765,-20.03764,1015.3,-999.00,-999.0,yes,no,no,300534061612440,ITB-20,USIABP,HDMS_Triton,North
2021-09-10T16:00:02Z,1631289603,2021,16,0,253.6667,253.6667,76.90795,-20.03553,1014.8,-999.00,-999.0,yes,no,no,300534061612440,ITB-20,USIABP,HDMS_Triton,North
2021-09-10T16:59:57Z,1631293197,2021,17,0,253.7083,253.7083,76.90741,-20.04228,1014.3,-999.00,-999.0,yes,no,no,300534061612440,ITB-20,USIABP,HDMS_Triton,North
2021-09-10T18:00:00Z,1631296800,2021,18,0,253.75,253.75,76.90751,-20.03618,1014.9,-999.00,-999.0,yes,no,no,300534061612440,ITB-20,USIABP,HDMS_Triton,North
2021-09-10T19:00:02Z,1631300403,2021,19,0,253.7917,253.7917,76.90727,-20.03664,1015.4,-999.00,-999.0,yes,no,no,300534061612440,ITB-20,USIABP,HDMS_Triton,North
2021-09-10T19:59:57Z,1631303997,2021,20,0,253.8333,253.8333,76.90711,-20.03861,1015.0,-999.00,-999.0,yes,no,no,300534061612440,ITB-20,USIABP,HDMS_Triton,North
2021-09-10T21:00:00Z,1631307600,2021,21,0,253.875,253.875,76.90732,-20.04241,1015.3,-999.00,-999.0,yes,no,no,300534061612440,ITB-20,USIABP,HDMS_Triton,North
2021-09-10T22:00:02Z,1631311203,2021,22,0,253.9167,253.9167,76.90754,-20.03618,1015.3,-999.00,-999.0,yes,no,no,300534061612440,ITB-20,USIABP,HDMS_Triton,North
2021-09-10T22:59:57Z,1631314797,2021,23,0,253.9583,253.9583,76.90709,-20.03749,1014.9,-999.00,-999.0,yes,no,no,300534061612440,ITB-20,USIABP,HDMS_Triton,North
2021-09-11T00:00:00Z,1631318400,2021,0,0,254.0,254.0,76.90705,-20.03961,1014.2,-999.00,-999.0,yes,no,no,300534061612440,ITB-20,USIABP,HDMS_Triton,North
2021-09-11T01:00:02Z,1631322003,2021,1,0,254.0417,254.0417,76.90693,-20.03838,1015.3,-999.00,-999.0,yes,no,no,300534061612440,ITB-20,USIABP,HDMS_Triton,North
2021-09-11T02:00:57Z,1631325658,2021,2,1,254.084,254.084,76.90713,-20.04373,1015.2,-999.00,-999.0,yes,no,no,300534061612440,ITB-20,USIABP,HDMS_Triton,North
2021-09-11T03:00:00Z,1631329200,2021,3,0,254.125,254.125,76.90683,-20.03942,1014.7,-999.00,-999.0,yes,no,no,300534061612440,ITB-20,USIABP,HDMS_Triton,North
2021-09-11T04:00:02Z,1631332803,2021,4,0,254.1667,254.1667,76.90698,-20.03894,1015.6,-999.00,-999.0,yes,no,no,300534061612440,ITB-20,USIABP,HDMS_Triton,North
2021-09-11T04:59:57Z,1631336397,2021,5,0,254.2083,254.2083,76.90679,-20.03782,1016.4,-999.00,-999.0,yes,no,no,300534061612440,ITB-20,USIABP,HDMS_Triton,North
2021-09-11T06:00:00Z,1631340000,2021,6,0,254.25,254.25,76.90712,-20.04461,1016.5,-999.00,-999.0,yes,no,no,300534061612440,ITB-20,USIABP,HDMS_Triton,North
2021-09-11T07:00:02Z,1631343603,2021,7,0,254.2917,254.2917,76.90682,-20.03748,1016.8,-999.00,-999.0,yes,no,no,300534061612440,ITB-20,USIABP,HDMS_Triton,North
2021-09-11T07:59:57Z,1631347197,2021,8,0,254.3333,254.3333,76.90697,-20.0383,1017.2,-999.00,-999.0,yes,no,no,300534061612440,ITB-20,USIABP,HDMS_Triton,North
2021-09-11T09:00:00Z,1631350800,2021,9,0,254.375,254.375,76.90694,-20.04124,1017.5,-999.00,-999.0,yes,no,no,300534061612440,ITB-20,USIABP,HDMS_Triton,North
2021-09-11T10:00:02Z,1631354403,2021,10,0,254.4167,254.4167,76.90706,-20.04134,1017.8,-999.00,-999.0,yes,no,no,300534061612440,ITB-20,USIABP,HDMS_Triton,North
2021-09-11T10:59:57Z,1631357997,2021,11,0,254.4583,254.4583,76.9001,-20.05601,1018.3,-999.00,-999.0,yes,no,no,300534061612440,ITB-20,USIABP,HDMS_Triton,North
2021-09-11T12:00:00Z,1631361600,2021,12,0,254.5,254.5,76.72401,-20.07419,1018.4,-999.00,-999.0,yes,no,no,300534061612440,ITB-20,USIABP,HDMS_Triton,North
2021-09-11T13:00:02Z,1631365203,2021,13,0,254.5417,254.5417,76.46246,-19.80556,1018.2,-999.00,-999.0,yes,no,no,300534061612440,ITB-20,USIABP,HDMS_Triton,North
2021-09-11T13:59:57Z,1631368797,2021,14,0,254.5833,254.5833,76.36613,-20.4814,1018.8,-999.00,-999.0,yes,no,no,300534061612440,ITB-20,USIABP,HDMS_Triton,North
2021-09-11T15:00:00Z,1631372400,2021,15,0,254.625,254.625,76.38209,-20.88347,1019.1,-999.00,-999.0,yes,no,no,300534061612440,ITB-20,USIABP,HDMS_Triton,North
2021-09-11T16:00:02Z,1631376003,2021,16,0,254.6667,254.6667,76.38214,-20.88376,1018.5,-999.00,-999.0,yes,no,no,300534061612440,ITB-20,USIABP,HDMS_Triton,North
2021-09-11T16:59:57Z,1631379597,2021,17,0,254.7083,254.7083,76.38238,-20.88351,1017.8,-999.00,-999.0,yes,no,no,300534061612440,ITB-20,USIABP,HDMS_Triton,North
2021-09-11T18:00:00Z,1631383200,2021,18,0,254.75,254.75,76.38162,-20.88583,1017.3,-999.00,-999.0,yes,no,no,300534061612440,ITB-20,USIABP,HDMS_Triton,North